Vertical_Velocity
1 2 0 -3 -1 -0 -1 1 1 -3 -2 -4 6 0 -0 8 2 -2 0 2 -2 -4 -4 -1 -2 -1 -5 -5 -0 -0 3 -1 -2 -0 -4 -3 -3 -1 -0 1 -0 4 -2 0 5 -4 -2
-1 -4 -2 -1 0 -1 -6 -0 -3 -4 1 4 -4 -1 1 6 -1 1 -5 5 -1 -2 -1 -3 -3 -2 -5 -3 1 -1 -1 -1 -4 -2 -1 -3 -1 1 1 -1 2 0 1 -3 -2 -3 -1
1 4 -5 1 -2 2 0 1 -1 -6 -1 3 -2 2 -0 -2 2 2 1 -1 -0 -6 -1 -2 -3 -1 -2 -1 -1 0 -1 -2 -1 1 -5 -0 3 -1 1 -2 -2 -2 2 -4 -5 -2 -2
6 -6 5 -0 -0 -2 4 -5 -0 1 1 3 -1 3 -3 3 -3 -2 5 -0 -1 -2 -2 -4 -3 -1 -6 -2 2 1 -1 -1 -1 -1 -1 -5 7 8 0 -1 -1 2 4 2 -4 1 -15
4 1 5 3 -3 2 -1 5 -2 0 0 -1 -2 -1 6 -1 2 -2 -0 3 -6 0 -0 -2 -4 -2 -3 2 3 -1 -1 -4 -4 -4 1 4 6 -2 4 2 -0 2 -2 1 -18 -1 -0
22 -1 2 -5 4 0 -1 1 -0 5 4 3 4 -1 2 0 -2 3 2 0 -4 -2 -1 -4 -1 0 0 -3 -3 -3 5 -6 -1 -4 -8 1 1 1 -2 -2 -5 -2 1 -2 -1 -23 0
-2 4 -6 2 -1 1 2 2 2 -0 -1 1 1 -1 2 -2 -2 -6 11 -2 -1 -1 -2 -1 -1 -2 -1 0 -0 -3 -4 -2 0 2 -1 -1 -3 -3 -5 -2 -2 3 3 1 -9 -12 17
-2 -3 36 19 -8 1 -2 0 3 2 -5 8 -5 5 2 0 4 -3 -1 -3 -3 -0 -7 1 1 -5 -2 1 -8 5 2 -5 -0 -0 1 -2 -3 -7 1 1 3 1 2 -8 -12 -4 16
4 1 -1 7 4 1 6 -1 2 2 11 -10 -3 7 -1 -3 3 4 -2 -4 -3 -5 -2 -4 1 -2 -1 3 -0 -4 -1 -1 1 0 -0 -1 -12 1 5 -2 5 -3 3 -3 5 -7 -5
-4 4 -1 2 10 6 5 4 2 9 -2 -4 -3 -10 -1 2 2 1 -2 -5 -1 -3 -7 -5 0 1 1 5 -1 2 -0 2 -2 0 1 -2 -4 0 1 0 3 3 -3 2 2 7 -2
1 3 2 -5 10 5 20 5 4 -0 4 -5 -0 -11 -4 2 5 1 -4 -4 -2 0 -3 -1 3 4 -2 -5 -1 -1 4 1 -1 -2 -5 -19 -0 -0 1 -7 -2 -16 3 2 2 2 9
-3 -1 2 4 2 25 12 2 1 -3 0 6 7 -0 1 3 5 -3 -4 1 -2 -19 -9 1 1 -2 -4 -0 -1 -6 -3 1 1 2 1 -6 -1 2 -4 -1 -1 -2 1 1 2 0 4
1 2 2 4 8 6 14 6 -4 0 3 -3 8 4 5 -3 -5 -5 0 -2 -11 -4 -1 1 -1 -1 0 -2 -3 -2 -1 -3 -0 -4 -2 -6 -2 -1 0 1 -1 1 -0 -4 -4 0 -5
1 3 2 4 4 2 12 7 5 1 -1 1 -6 5 1 5 -4 -2 3 -8 0 -2 -1 1 -0 -1 -2 0 -2 -2 -1 -2 -0 -1 1 3 -18 -0 1 -4 -1 -2 -4 0 1 -0 -4
6 4 7 2 22 5 9 9 2 3 -3 -2 -7 5 3 -1 1 1 4 -3 -7 -2 -4 -1 1 -1 -1 -1 -1 -1 0 0 1 -0 3 2 -7 -4 2 -1 -7 -2 -1 -5 2 -0 7
7 4 7 7 31 2 8 -6 5 -0 11 -2 -12 1 3 -1 6 10 -8 -3 -2 -1 -2 -1 -2 -3 -0 -1 -3 -1 -0 -3 -1 -1 -2 -6 -1 -3 -5 1 -2 -6 -3 0 -0 0 -1
3 4 3 1 17 15 4 -2 10 -13 4 7 -1 2 3 12 3 4 -5 -3 0 1 -6 -4 -1 -0 -1 -2 -0 -0 -2 -8 -0 -1 1 2 7 -16 -2 -0 -2 -2 -0 1 3 -1 1
-3 -1 -1 16 10 17 8 -2 -1 16 -23 8 -5 -1 6 15 -5 0 -1 -4 0 1 2 -0 -3 -1 -2 -0 0 0 -2 -2 2 3 -0 -1 3 0 -9 -9 -2 -1 -2 -0 3 -2 0
3 8 19 18 7 8 4 5 8 -9 -17 -10 -7 2 18 6 -4 0 2 1 -1 0 0 1 -0 -2 -1 -2 -7 0 -0 -4 1 0 -1 1 -3 -1 -11 -3 -3 1 -2 0 1 1 -1
12 20 14 10 11 15 8 1 22 -19 -8 -6 -3 -3 3 4 0 -4 -1 1 1 2 -0 -0 -1 -2 -0 -1 -0 -3 -1 -3 0 -0 1 4 0 5 6 7 5 -2 -1 0 -1 -2 1
12 13 18 18 12 -0 -0 -19 1 0 4 1 -2 0 -7 -1 0 0 -3 -2 0 1 0 1 2 -2 -2 -0 -0 -1 -0 -3 -3 -0 -1 2 1 1 2 1 -2 6 2 1 -5 4 -2
37 23 13 24 21 12 -5 12 5 1 6 -11 -9 -8 2 1 1 -2 0 1 -2 2 -5 1 -1 -0 -0 -1 -6 -2 1 -0 -2 -5 -0 -0 -2 1 -1 -1 -0 -2 -0 -0 -0 2 -1
-7 -1 13 13 -6 -2 1 10 5 0 -1 -1 3 3 -8 3 1 -4 -2 -0 -2 -2 1 -2 -3 -0 1 -5 1 -3 -2 1 -3 1 -0 1 1 1 -1 0 -1 -6 5 2 2 -0 2
7 3 -5 -8 -10 2 1 -8 -2 -8 2 -5 -6 -6 -8 2 -3 -2 -1 -2 -1 -1 -5 -0 -0 -0 -1 2 -4 3 4 2 3 -2 -1 0 1 1 -0 -0 -5 -4 0 1 -2 4 0
-1 4 6 -1 -3 -2 -0 2 -2 3 -3 1 -7 -1 -5 0 -2 1 1 -1 1 3 -1 -1 0 -0 -0 -0 -3 -3 -3 -2 1 -0 1 1 1 -0 2 0 4 -1 -1 0 3 7 3
2 -2 -5 -5 -4 4 4 1 0 -0 -4 1 -2 -3 -7 -13 -2 -4 -2 -1 -1 0 -1 0 1 1 -1 -1 -1 -0 -1 0 -1 -1 1 1 -0 5 -0 -1 -1 5 -2 1 2 3 2
-2 -3 3 4 5 -1 1 2 -1 -1 -4 0 -4 -2 -6 -10 1 -0 -2 -5 0 -0 -2 -0 -1 -3 0 -0 -1 -0 -1 1 -0 0 -1 -1 -1 2 -0 0 3 2 -1 0 5 3 1
1 3 2 1 5 3 0 3 1 -1 -1 -1 -3 -1 -6 -3 2 2 -0 -6 -1 -1 -3 -1 -6 -5 -3 -4 -1 0 -0 -0 1 1 2 -0 2 0 -1 -2 0 1 -3 -4 4 2 -1
1 2 1 -1 0 2 -1 -1 -5 -2 -3 3 -7 -1 -3 -9 -3 1 2 -1 -4 -3 -8 0 -1 -0 -1 -3 -0 -1 -1 -1 1 2 -1 -2 1 3 6 4 3 4 3 3 -1 -1 -0
Height
1500 1501 1502 1505 1505 1506 1507 1507 1509 1508 1510 1511 1511 1510 1510 1509 1509 1509 1509 1507 1506 1505 1503 1500 1498 1495 1494 1495 1494 1492 1491 1490 1489 1488 1488 1488 1489 1490 1490 1487 1484 1480 1475 1472 1472 1474 1473
1492 1495 1496 1498 1500 1502 1503 1504 1505 1506 1506 1507 1508 1507 1508 1508 1507 1506 1507 1505 1504 1502 1499 1498 1496 1494 1495 1495 1492 1491 1491 1490 1489 1489 1488 1489 1490 1491 1489 1486 1485 1477 1472 1468 1468 1470 1468
1485 1487 1490 1492 1495 1496 1498 1499 1501 1501 1502 1504 1504 1505 1505 1505 1504 1504 1504 1503 1501 1499 1497 1495 1494 1493 1493 1492 1490 1490 1490 1490 1489 1488 1487 1488 1488 1489 1487 1484 1479 1476 1472 1465 1462 1465 1463
1476 1480 1482 1485 1489 1490 1493 1494 1496 1497 1498 1500 1501 1502 1503 1503 1502 1502 1501 1500 1499 1496 1494 1493 1493 1492 1490 1490 1490 1489 1489 1489 1488 1487 1486 1485 1487 1486 1484 1481 1475 1477 1475 1468 1456 1462 1459
1467 1470 1473 1477 1480 1484 1486 1488 1491 1493 1494 1495 1497 1498 1499 1500 1500 1500 1500 1498 1496 1494 1491 1491 1492 1491 1491 1490 1488 1487 1486 1485 1484 1484 1483 1483 1484 1484 1482 1481 1480 1478 1475 1471 1448 1454 1452
1460 1460 1465 1468 1471 1475 1477 1481 1484 1487 1489 1491 1492 1494 1497 1497 1499 1499 1498 1496 1493 1492 1491 1490 1490 1494 1490 1488 1486 1485 1484 1483 1481 1479 1480 1481 1481 1481 1484 1488 1481 1475 1478 1470 1464 1443 1446
1451 1454 1452 1460 1461 1465 1469 1473 1476 1479 1483 1486 1490 1491 1493 1495 1496 1496 1497 1496 1496 1493 1490 1490 1488 1490 1489 1487 1484 1483 1482 1480 1478 1479 1481 1480 1485 1485 1480 1479 1474 1471 1471 1471 1455 1448 1450
1442 1445 1448 1446 1453 1456 1461 1464 1468 1471 1476 1481 1485 1487 1490 1493 1494 1493 1494 1494 1493 1495 1490 1486 1485 1487 1489 1488 1484 1483 1482 1481 1479 1480 1478 1482 1480 1470 1469 1471 1473 1473 1471 1461 1451 1445 1447
1429 1433 1439 1441 1441 1447 1450 1456 1460 1463 1468 1474 1479 1483 1488 1490 1493 1492 1490 1492 1490 1491 1491 1486 1484 1486 1489 1488 1484 1482 1481 1479 1478 1478 1476 1479 1464 1463 1464 1465 1466 1461 1465 1458 1455 1444 1440
1417 1420 1424 1431 1433 1437 1441 1444 1451 1456 1460 1467 1473 1479 1484 1488 1492 1490 1488 1491 1489 1490 1497 1487 1484 1486 1488 1484 1483 1481 1480 1480 1477 1477 1473 1470 1460 1460 1461 1460 1461 1463 1448 1450 1448 1447 1446
1403 1406 1411 1417 1423 1425 1429 1435 1441 1450 1452 1459 1465 1472 1479 1484 1485 1487 1488 1488 1490 1491 1501 1485 1485 1485 1485 1487 1485 1479 1478 1476 1475 1475 1477 1466 1459 1458 1458 1452 1452 1450 1443 1445 1441 1440 1438
1389 1392 1397 1405 1411 1415 1419 1426 1432 1438 1447 1455 1460 1468 1475 1480 1482 1485 1487 1487 1492 1500 1496 1486 1485 1485 1484 1485 1484 1480 1478 1477 1474 1471 1469 1464 1455 1454 1449 1445 1445 1442 1445 1439 1434 1440 1441
1373 1377 1381 1391 1399 1406 1412 1414 1423 1430 1440 1450 1456 1463 1471 1475 1478 1482 1486 1487 1498 1501 1485 1488 1487 1488 1487 1487 1485 1483 1483 1481 1479 1477 1469 1460 1450 1447 1447 1447 1440 1444 1446 1452 1442 1435 1426
1353 1357 1364 1372 1383 1392 1399 1403 1411 1421 1433 1443 1453 1462 1464 1470 1475 1480 1483 1487 1495 1484 1483 1484 1485 1488 1490 1488 1485 1485 1485 1485 1480 1483 1478 1469 1457 1444 1442 1442 1439 1443 1442 1445 1433 1427 1409
1327 1334 1342 1354 1367 1377 1385 1392 1401 1412 1427 1436 1449 1456 1463 1466 1472 1477 1479 1495 1480 1482 1480 1482 1485 1490 1490 1489 1490 1488 1484 1484 1480 1480 1485 1476 1461 1440 1439 1434 1438 1436 1442 1434 1435 1423 1416
1297 1305 1317 1332 1350 1358 1370 1381 1395 1405 1418 1429 1444 1454 1459 1464 1469 1474 1478 1478 1477 1475 1476 1481 1485 1490 1497 1490 1493 1490 1483 1481 1479 1479 1481 1480 1458 1441 1434 1433 1433 1431 1430 1434 1433 1420 1416
1259 1273 1289 1308 1329 1341 1356 1371 1386 1396 1414 1431 1443 1453 1457 1460 1467 1470 1479 1475 1474 1473 1475 1480 1486 1490 1488 1496 1495 1494 1488 1481 1476 1477 1477 1474 1468 1445 1438 1431 1432 1433 1432 1430 1428 1424 1420
1228 1249 1272 1293 1313 1327 1344 1361 1376 1382 1408 1429 1441 1448 1451 1457 1465 1468 1470 1469 1470 1472 1473 1477 1481 1483 1489 1495 1493 1498 1492 1481 1474 1477 1475 1469 1462 1456 1436 1421 1425 1426 1425 1423 1424 1421 1419
1225 1241 1263 1281 1303 1320 1336 1351 1371 1379 1397 1418 1434 1443 1450 1453 1464 1463 1463 1465 1468 1471 1472 1477 1480 1481 1485 1492 1499 1492 1488 1473 1474 1474 1475 1470 1459 1449 1433 1427 1426 1425 1420 1417 1418 1418 1420
1229 1243 1261 1283 1302 1318 1332 1352 1362 1377 1400 1415 1423 1440 1451 1453 1453 1453 1457 1464 1468 1470 1472 1473 1476 1480 1484 1486 1486 1490 1486 1473 1471 1469 1470 1469 1461 1457 1457 1451 1449 1435 1419 1413 1415 1420 1432
1241 1257 1274 1289 1304 1316 1332 1353 1365 1385 1398 1403 1415 1428 1433 1445 1450 1450 1452 1461 1467 1471 1470 1472 1476 1478 1481 1490 1485 1486 1482 1476 1469 1467 1466 1468 1462 1461 1457 1457 1452 1445 1434 1428 1426 1434 1438
1259 1270 1286 1299 1309 1320 1339 1354 1370 1385 1394 1403 1409 1417 1427 1435 1442 1447 1452 1461 1465 1468 1468 1471 1473 1475 1477 1480 1479 1479 1476 1477 1475 1468 1466 1466 1462 1458 1450 1449 1448 1453 1450 1445 1443 1447 1454
1284 1292 1300 1307 1317 1330 1346 1360 1371 1384 1393 1401 1406 1412 1420 1438 1442 1447 1453 1459 1462 1464 1468 1468 1472 1474 1475 1474 1472 1470 1469 1469 1469 1471 1472 1469 1461 1457 1447 1445 1443 1451 1462 1461 1459 1456 1456
1301 1306 1312 1321 1331 1341 1353 1364 1376 1387 1395 1400 1405 1412 1419 1439 1440 1444 1450 1456 1460 1462 1465 1468 1471 1472 1471 1469 1466 1461 1460 1461 1464 1465 1469 1467 1462 1456 1445 1449 1454 1467 1466 1465 1467 1470 1469
1313 1320 1326 1334 1343 1352 1360 1372 1382 1390 1397 1403 1407 1411 1418 1436 1439 1446 1451 1455 1460 1461 1464 1467 1470 1471 1468 1466 1465 1462 1460 1458 1460 1459 1463 1464 1462 1452 1444 1451 1463 1462 1471 1472 1470 1475 1477
1326 1331 1338 1344 1353 1360 1368 1376 1384 1392 1400 1405 1408 1413 1418 1429 1442 1444 1451 1455 1460 1463 1467 1467 1469 1468 1467 1467 1469 1469 1468 1462 1461 1460 1459 1461 1462 1458 1452 1448 1460 1474 1473 1472 1471 1472 1480
1336 1342 1348 1354 1359 1365 1373 1380 1387 1395 1401 1407 1411 1416 1420 1429 1441 1445 1450 1455 1457 1462 1467 1468 1468 1467 1466 1472 1474 1473 1475 1466 1469 1464 1464 1462 1463 1463 1456 1456 1468 1478 1473 1469 1465 1485 1481
1346 1351 1355 1359 1364 1370 1377 1384 1390 1396 1402 1408 1412 1418 1423 1430 1442 1446 1450 1452 1457 1460 1467 1468 1470 1469 1470 1477 1475 1477 1476 1471 1472 1467 1465 1471 1469 1469 1464 1465 1467 1477 1472 1472 1482 1483 1482
1352 1357 1360 1364 1369 1375 1381 1387 1394 1399 1405 1410 1413 1420 1424 1431 1443 1448 1451 1454 1457 1460 1462 1465 1468 1469 1472 1477 1479 1479 1479 1476 1470 1464 1468 1472 1476 1476 1480 1482 1485 1483 1482 1483 1484 1484 1485